Hourly Data Report for May 14, 2015

All times are specified in Local Standard Time (LST). Add 1 hour to adjust for Daylight Saving Time where and when it is observed.

CHARLOTTETOWN A
PRINCE EDWARD ISLAND

46°17'21.000" N
63°07'09.000" W
48.50 m
8300301
71706
YYG

Download Data

Hourly Data (May 2015)
Hourly Data Report for May 14, 2015
Temp Definition
°C
Dew Point Temp Definition
°C
Rel Hum Definition
%
Wind Dir Definition
10's deg

Wind Spd Definition
km/h
Visibility Definition
km
Stn Press Definition
kPa
Hmdx Definition


Wind Chill Definition


Weather Definition


TIME
00:00 Legend Double Dagger 3.2 1.4 88 23 12 24.1 101.04     LegendNANA
01:00 Legend Double Dagger 3.8 1.8 87 25 11 24.1 101.06     LegendNANA
02:00 Legend Double Dagger 3.1 1.2 87 25 4 24.1 101.09     Clear
03:00 Legend Double Dagger 2.7 0.4 85 28 6 24.1 101.16     LegendNANA
04:00 Legend Double Dagger 3.5 0.0 78 30 9 24.1 101.22     LegendNANA
05:00 Legend Double Dagger 3.7 0.1 77 29 7 24.1 101.27     Mainly Clear
06:00 Legend Double Dagger 5.3 0.5 71 28 10 24.1 101.34     LegendNANA
07:00 Legend Double Dagger 7.3 1.2 65 31 10 24.1 101.44     LegendNANA
08:00 Legend Double Dagger 9.7 1.1 55 31 9 24.1 101.48     Mainly Clear
09:00 Legend Double Dagger 10.6 0.4 49 28 13 24.1 101.51     LegendNANA
10:00 Legend Double Dagger 12.6 -0.9 39 29 14 24.1 101.51     LegendNANA
11:00 Legend Double Dagger 13.2 -3.5 31 28 19 24.1 101.51     Mainly Clear
12:00 Legend Double Dagger 13.5 -3.7 30 30 24 24.1 101.47     LegendNANA
13:00 Legend Double Dagger 13.8 -3.4 30 26 21 24.1 101.44     LegendNANA
14:00 Legend Double Dagger 15.1 -3.2 28 26 25 24.1 101.40     Mainly Clear
15:00 Legend Double Dagger 16.1 -0.9 31 26 19 24.1 101.36     LegendNANA
16:00 Legend Double Dagger 16.1 -1.4 30 23 19 24.1 101.36     LegendNANA
17:00 Legend Double Dagger 15.9 -1.1 31 22 21 24.1 101.37     Mainly Clear
18:00 Legend Double Dagger 15.5 0.2 35 22 17 24.1 101.38     LegendNANA
19:00 Legend Double Dagger 13.6 -0.4 38 24 13 24.1 101.42     LegendNANA
20:00 Legend Double Dagger 10.1 1.3 54 20 14 24.1 101.47     Mainly Clear
21:00 Legend Double Dagger 8.9 0.1 54 21 10 24.1 101.52     LegendNANA
22:00 Legend Double Dagger 9.6 0.5 53 22 17 24.1 101.53     LegendNANA
23:00 Legend Double Dagger 9.2 -0.1 52 22 18 24.1 101.52     Clear

Notes on Data Quality.

Legend

  • E = Estimated
  • M = Missing
  • NA = Not Available
  • ‡ = Partner data that is not subject to review by the National Climate Archives
Date modified: